Location: Frankfurt+am+Main
(50.1100°N, 8.4815°E)
Time: 18:34:58
(UTC+01:00)

ISS - Pass Details

Date: 12 January 2018
Orbit: 402 x 407 km, 51.6° (Epoch: 19 January)

Event Time Altitude Azimuth Distance (km) Brightness Sun altitude
Exits shadow 06:23:56 43° 222° (SW) 585 -3.3 -18.1°
Maximum altitude 06:24:10 44° 208° (SSW) 577 -3.2 -18.0°
Drops below altitude 10° 06:27:19 10° 135° (SE) 1,463 -0.1 -17.5°
Sets 06:29:26 0° 129° (SE) 2,322 1.2 -17.2°
